• In Kazakhstan
  • List of Countries
  • For 7 days
  • Water Temperature
  • Satellite Maps
  • Weather Map
  • News
  • Weather Widgets
  • user-avatar
    Login

    Hourly Weather Arvada

    Today, 22 September, Friday

    Time Temperature Precipitation Wind Pressure Humidity
    00:00 +18°C° 0 mm 4 mps 620 mmHg 29%
    01:00 +17°C° 0 mm 4 mps 619 mmHg 30%
    02:00 +17°C° 0 mm 4 mps 619 mmHg 31%
    03:00 +15°C° 0 mm 4 mps 619 mmHg 34%
    04:00 +16°C° 0 mm 3 mps 619 mmHg 36%
    05:00 +14°C° 0 mm 3 mps 619 mmHg 38%
    06:00 +17°C° 0 mm 3 mps 620 mmHg 36%
    07:00 +19°C° 0 mm 3 mps 620 mmHg 33%
    08:00 +21°C° 0 mm 3 mps 621 mmHg 31%
    09:00 +22°C° 0 mm 4 mps 621 mmHg 28%
    10:00 +25°C° 0 mm 5 mps 622 mmHg 25%
    11:00 +27°C° 0 mm 5 mps 622 mmHg 22%
    12:00 +27°C° 0 mm 6 mps 622 mmHg 22%
    13:00 +27°C° 0 mm 6 mps 622 mmHg 22%
    14:00 +27°C° 0 mm 7 mps 621 mmHg 22%
    15:00 +27°C° 0 mm 6 mps 621 mmHg 25%
    16:00 +26°C° 0 mm 5 mps 621 mmHg 27%
    17:00 +25°C° 0 mm 4 mps 621 mmHg 30%
    18:00 +22°C° 0.1 mm 3 mps 621 mmHg 34%
    19:00 +21°C° 0.1 mm 3 mps 621 mmHg 39%
    20:00 +19°C° 0.1 mm 3 mps 621 mmHg 43%
    21:00 +18°C° 0 mm 2 mps 620 mmHg 47%
    22:00 +17°C° 0 mm 2 mps 620 mmHg 50%
    23:00 +15°C° 0 mm 2 mps 620 mmHg 54%

    Tomorrow, 23 September, Saturday

    Time Temperature Precipitation Wind Pressure Humidity
    00:00 +15°C° 0 mm 2 mps 620 mmHg 58%
    01:00 +14°C° 0 mm 2 mps 620 mmHg 62%
    02:00 +14°C° 0 mm 2 mps 620 mmHg 66%
    03:00 +13°C° 0 mm 2 mps 620 mmHg 71%
    04:00 +12°C° 0 mm 1 mps 619 mmHg 76%
    05:00 +11°C° 0 mm 1 mps 619 mmHg 81%
    06:00 +13°C° 0 mm 2 mps 620 mmHg 75%
    07:00 +14°C° 0 mm 2 mps 620 mmHg 70%
    08:00 +16°C° 0 mm 2 mps 621 mmHg 64%
    09:00 +17°C° 0.1 mm 2 mps 621 mmHg 59%
    10:00 +19°C° 0.1 mm 3 mps 621 mmHg 53%
    11:00 +21°C° 0.1 mm 3 mps 621 mmHg 48%
    12:00 +21°C° 0.4 mm 3 mps 621 mmHg 47%
    13:00 +21°C° 0.4 mm 3 mps 620 mmHg 47%
    14:00 +22°C° 0.4 mm 4 mps 620 mmHg 47%
    15:00 +21°C° 0.7 mm 4 mps 620 mmHg 49%
    16:00 +21°C° 0.7 mm 3 mps 620 mmHg 52%
    17:00 +21°C° 0.7 mm 3 mps 620 mmHg 54%
    18:00 +18°C° 1.2 mm 4 mps 620 mmHg 66%
    19:00 +15°C° 1.2 mm 4 mps 619 mmHg 77%
    20:00 +13°C° 1.2 mm 4 mps 619 mmHg 89%
    21:00 +12°C° 0.2 mm 4 mps 619 mmHg 89%
    22:00 +12°C° 0.2 mm 3 mps 620 mmHg 88%
    23:00 +12°C° 0.2 mm 3 mps 620 mmHg 88%

    Day after tomorrow, 24 September, Sunday

    Time Temperature Precipitation Wind Pressure Humidity
    00:00 +12°C° 0.1 mm 3 mps 620 mmHg 88%
    01:00 +11°C° 0.1 mm 3 mps 620 mmHg 89%
    02:00 +11°C° 0.1 mm 3 mps 620 mmHg 89%
    03:00 +11°C° 0.1 mm 3 mps 620 mmHg 89%
    04:00 +11°C° 0.1 mm 3 mps 620 mmHg 89%
    05:00 +10°C° 0.1 mm 3 mps 620 mmHg 89%
    06:00 +10°C° 0.1 mm 3 mps 620 mmHg 88%
    07:00 +10°C° 0.1 mm 3 mps 620 mmHg 87%
    08:00 +10°C° 0.1 mm 2 mps 621 mmHg 86%
    09:00 +11°C° 0.1 mm 3 mps 620 mmHg 84%
    10:00 +11°C° 0.1 mm 3 mps 620 mmHg 81%
    11:00 +12°C° 0.1 mm 3 mps 620 mmHg 79%
    12:00 +13°C° 0.1 mm 3 mps 620 mmHg 76%
    13:00 +13°C° 0.1 mm 3 mps 620 mmHg 72%
    14:00 +14°C° 0.1 mm 3 mps 620 mmHg 69%
    15:00 +14°C° 0.2 mm 3 mps 620 mmHg 72%
    16:00 +13°C° 0.2 mm 3 mps 620 mmHg 76%
    17:00 +13°C° 0.2 mm 3 mps 620 mmHg 79%
    18:00 +12°C° 0.4 mm 3 mps 621 mmHg 82%
    19:00 +12°C° 0.4 mm 3 mps 621 mmHg 85%
    20:00 +12°C° 0.4 mm 2 mps 621 mmHg 89%
    21:00 +12°C° 0.3 mm 2 mps 621 mmHg 89%
    22:00 +10°C° 0.3 mm 2 mps 621 mmHg 90%
    23:00 +10°C° 0.3 mm 2 mps 621 mmHg 91%

    25 September, Monday

    Time Temperature Precipitation Wind Pressure Humidity
    00:00 +10°C° 0.2 mm 2 mps 621 mmHg 91%
    01:00 +10°C° 0.2 mm 2 mps 621 mmHg 91%
    02:00 +10°C° 0.2 mm 2 mps 621 mmHg 90%
    03:00 +10°C° 0.2 mm 2 mps 622 mmHg 91%
    04:00 +9°C° 0.2 mm 2 mps 622 mmHg 92%
    05:00 +9°C° 0.2 mm 2 mps 622 mmHg 93%
    06:00 +9°C° 0.2 mm 2 mps 622 mmHg 90%
    07:00 +10°C° 0.2 mm 2 mps 622 mmHg 88%
    08:00 +10°C° 0.2 mm 2 mps 622 mmHg 85%
    09:00 +12°C° 0.7 mm 2 mps 623 mmHg 78%
    10:00 +13°C° 0.7 mm 2 mps 623 mmHg 71%
    11:00 +14°C° 0.7 mm 2 mps 623 mmHg 64%
    12:00 +14°C° 0.8 mm 2 mps 623 mmHg 64%
    13:00 +14°C° 0.8 mm 3 mps 623 mmHg 63%
    14:00 +14°C° 0.8 mm 3 mps 623 mmHg 62%
    15:00 +13°C° 1 mm 3 mps 623 mmHg 66%
    16:00 +13°C° 1 mm 3 mps 623 mmHg 70%
    17:00 +12°C° 1 mm 3 mps 623 mmHg 74%
    18:00 +11°C° 0.3 mm 3 mps 624 mmHg 79%
    19:00 +9°C° 0.3 mm 3 mps 624 mmHg 84%
    20:00 +8°C° 0.3 mm 2 mps 624 mmHg 89%
    21:00 +8°C° 0.1 mm 2 mps 624 mmHg 89%
    22:00 +8°C° 0.1 mm 2 mps 624 mmHg 88%
    23:00 +8°C° 0.1 mm 2 mps 625 mmHg 88%

    26 September, Tuesday

    Time Temperature Precipitation Wind Pressure Humidity
    00:00 +7°C° 0 mm 2 mps 624 mmHg 89%
    01:00 +7°C° 0 mm 2 mps 624 mmHg 90%
    02:00 +8°C° 0 mm 1 mps 624 mmHg 91%
    03:00 +8°C° 0 mm 1 mps 624 mmHg 90%
    04:00 +8°C° 0 mm 1 mps 624 mmHg 89%
    05:00 +8°C° 0 mm 1 mps 624 mmHg 88%
    06:00 +8°C° 0 mm 1 mps 624 mmHg 85%
    07:00 +9°C° 0 mm 1 mps 624 mmHg 82%
    08:00 +10°C° 0 mm 1 mps 625 mmHg 80%
    09:00 +11°C° 0 mm 1 mps 625 mmHg 76%
    10:00 +12°C° 0 mm 1 mps 625 mmHg 71%
    11:00 +14°C° 0 mm 2 mps 625 mmHg 67%
    12:00 +14°C° 0.2 mm 2 mps 625 mmHg 64%
    13:00 +15°C° 0.2 mm 2 mps 624 mmHg 61%
    14:00 +16°C° 0.2 mm 2 mps 624 mmHg 58%
    15:00 +16°C° 0.4 mm 2 mps 624 mmHg 59%
    16:00 +16°C° 0.4 mm 2 mps 624 mmHg 61%
    17:00 +15°C° 0.4 mm 2 mps 624 mmHg 62%
    18:00 +14°C° 0.1 mm 2 mps 624 mmHg 68%
    19:00 +12°C° 0.1 mm 1 mps 624 mmHg 74%
    20:00 +10°C° 0.1 mm 1 mps 624 mmHg 79%
    21:00 +10°C° 0 mm 1 mps 624 mmHg 80%
    22:00 +10°C° 0 mm 1 mps 624 mmHg 80%
    23:00 +8°C° 0 mm 2 mps 624 mmHg 80%

    27 September, Wednesday

    Time Temperature Precipitation Wind Pressure Humidity
    00:00 +8°C° 0 mm 2 mps 624 mmHg 80%
    01:00 +8°C° 0 mm 2 mps 624 mmHg 79%
    02:00 +8°C° 0 mm 2 mps 624 mmHg 78%
    03:00 +8°C° 0 mm 1 mps 624 mmHg 79%
    04:00 +8°C° 0 mm 1 mps 624 mmHg 79%
    05:00 +8°C° 0 mm 1 mps 624 mmHg 80%
    06:00 +9°C° 0 mm 1 mps 625 mmHg 76%
    07:00 +10°C° 0 mm 2 mps 625 mmHg 72%
    08:00 +12°C° 0 mm 2 mps 626 mmHg 68%
    09:00 +13°C° 0 mm 2 mps 626 mmHg 65%
    10:00 +14°C° 0 mm 2 mps 626 mmHg 63%
    11:00 +14°C° 0 mm 3 mps 626 mmHg 61%
    12:00 +16°C° 0.3 mm 3 mps 626 mmHg 61%
    13:00 +16°C° 0.3 mm 2 mps 626 mmHg 60%
    14:00 +16°C° 0.3 mm 2 mps 626 mmHg 60%
    15:00 +15°C° 0.4 mm 2 mps 626 mmHg 62%
    16:00 +15°C° 0.4 mm 2 mps 626 mmHg 64%
    17:00 +14°C° 0.4 mm 3 mps 626 mmHg 66%
    18:00 +14°C° 0.2 mm 2 mps 626 mmHg 70%
    19:00 +13°C° 0.2 mm 2 mps 627 mmHg 75%
    20:00 +12°C° 0.2 mm 2 mps 627 mmHg 79%
    21:00 +12°C° 0.2 mm 2 mps 627 mmHg 79%
    22:00 +12°C° 0.2 mm 2 mps 627 mmHg 80%
    23:00 +12°C° 0.2 mm 2 mps 627 mmHg 81%
    Show more